Date,TemperatureHighF,TemperatureAvgF,TemperatureLowF,DewpointHighF,DewpointAvgF,DewpointLowF,HumidityHigh,HumidityAvg,HumidityLow,PressureMaxIn,PressureMinIn,WindSpeedMaxMPH,WindSpeedAvgMPH,GustSpeedMaxMPH,PrecipitationSumIn
2013-2-6,35,33,32,22,22,21,66,62,58,30.02,29.98,7,5,10,0.00
2013-2-7,49,38,31,22,19,17,62,46,28,30.12,29.99,19,3,20,0.00
2013-2-8,49,36,27,24,20,14,77,54,29,29.88,29.79,13,2,14,0.00
2013-2-9,39,30,24,28,22,19,92,72,47,29.84,29.72,17,4,20,0.00
2013-2-10,29,25,19,24,19,9,93,79,62,30.10,29.69,36,12,40,0.00
2013-2-11,28,21,15,18,11,4,74,64,44,30.18,30.07,10,3,12,0.00
2013-2-12,44,34,22,23,15,3,55,46,35,30.08,29.91,17,5,22,0.00
2013-2-13,46,38,31,29,23,18,75,55,39,29.97,29.75,30,10,35,0.00
2013-2-14,32,26,16,22,15,8,90,66,45,30.38,29.96,19,7,33,0.00
2013-2-15,29,23,16,18,10,6,82,58,41,30.48,30.17,18,4,24,0.00
2013-2-16,53,43,27,26,24,16,69,48,32,30.17,29.77,23,6,26,0.00
2013-2-17,54,40,30,29,22,16,71,50,23,29.77,29.46,24,8,28,0.00
2013-2-18,31,25,13,22,15,9,85,67,54,30.24,29.73,22,8,30,0.00
2013-2-19,24,15,9,15,9,5,91,78,64,30.31,30.17,15,4,20,0.00
2013-2-20,32,21,14,17,12,7,86,69,48,30.17,29.96,17,4,24,0.00
2013-2-21,23,19,14,21,17,12,92,90,86,30.08,30.01,10,3,11,0.01
2013-2-22,34,24,13,28,18,10,93,78,49,30.08,29.85,11,2,14,0.40
2013-2-23,43,33,21,29,14,8,84,48,27,29.85,29.68,12,4,17,0.00
2013-2-24,34,30,24,30,24,16,93,78,66,30.16,29.83,16,6,25,0.01
2013-2-25,47,32,19,18,10,0,70,43,14,30.15,29.84,18,5,23,0.00
2013-2-26,39,32,25,28,21,11,81,64,44,30.15,29.83,24,9,37,0.00
2013-2-27,37,29,20,22,19,14,85,67,45,30.30,30.15,17,4,25,0.00
2013-2-28,38,28,17,26,20,13,88,73,52,30.31,30.24,10,2,11,0.00